DECAYED

STARLINK-2562, 48288 (Decayed)

Orbit data source: Space-Track

STARLINK-2562, 48288 was a payload satellite owned by SpaceX/Seattle (US) in LEO that was launched on Thu, 29 Apr 2021 UTC via an FALCON 9 launch vehicle from the Air Force Eastern Test Range (AFETR). Payload-class satellites include a variety of spacecraft equipped with specific instruments for various scientific and technological missions. These include communications satellites like Starlink; space stations such as the ISS; scientific satellites like the Hubble; Earth observation satellites from companies like Planet Labs, Umbra, and HawkEye 360; GPS; miniature CubeSats for education and research; and military/defense satellites.

Not visible in the next 10 days
Identifier
48288, 2021-036N
Orbit
Decayed
Country
Flag of USUS
Related business
Manufacturer
SpaceX/Seattle
Mission
Decayed Commercial Communications
Bus & Motor
STARLINK, Unknown motor
Mass
260 kg wet, ~248 kg dry
Launch date (UTC)
2021-04-29 (5 years ago)
Launch vehicle
FALCON 9
Launch site
Air Force Eastern Test Range (AFETR)
Object type
Payload
Rocket body
Debris
Shape & HBR
Box + 1 Pan, 10.1 m
Radar Cross Section
13.562 m², Large (>1 m²)

Expand to show TLE details & history
Last TLE update: 9 months ago

TLE from 9 months ago
0 STARLINK-2562
1 48288U 21036N   25272.65166295  .09881823  12409-4  78528-3 0  9992
2 48288  53.0284  43.2600 0007551 303.0921  56.9399 16.39191342244612
Epoch: 2025-09-29T15:38Z
TLE epoch observation values (Epoch: 2025-09-29T15:38:23.678Z)
Latitude
-0.00008°
Longitude
160.00896°
Altitude
166.188 km
Speed
7.809 km/s
True Right ascension
02h 53m 02s
True Declination
0° 00' 00"
Sunlit
Object was in full shadow at epoch
Visualization orbit readout
Latitude
Unknown
Longitude
Unknown
Altitude
Unknown
Speed
Unknown
Apparent Right ascension
Unknown
Apparent Declination
Unknown
Sunlit
N/A
Visualization observer readout
Local Sidereal Time
21:35:03
Azimuth
Unknown
Elevation
Unknown
Doppler factor
Unknown
Orbital elements
Apogee altitude
173.188 km
Perigee altitude
163.302 km
Semi-major axis
6,546.382 km
Eccentricity
0.00076
Inclination
53.0284°
RAAN
43.26°
Arg. of periapsis
303.0921°
True anomaly
57.01246°
Mean anomaly
56.9399°
Eccentric anomaly
56.97617°
Mean motion
4.09771 °/min
Orbital period
87.85 mins
BSTAR
0.00078528
Loading maneuver chart data...
Computing Atmospheric mass density...
Loading historical data...
Loading historical data...
Loading historical data...
Loading historical data...
Loading historical data...
Loading historical data...
Loading historical data...

Documentation

Showing up to 5 results
|